TimeCDT,TemperatureF,Dew PointF,Humidity,Sea Level PressureIn,VisibilityMPH,Wind Direction,Wind SpeedMPH,Gust SpeedMPH,PrecipitationIn,Events,Conditions,WindDirDegrees,DateUTC
12:53 AM,70.0,66.0,87,29.91,10.0,Calm,Calm,-,N/A,,Clear,0,2012-10-02 05:53:00
1:53 AM,69.1,66.9,93,29.91,10.0,Calm,Calm,-,N/A,,Clear,0,2012-10-02 06:53:00
2:53 AM,69.1,66.0,90,29.92,10.0,WNW,3.5,-,N/A,,Clear,290,2012-10-02 07:53:00
3:53 AM,69.1,63.0,81,29.91,10.0,Calm,Calm,-,N/A,,Clear,0,2012-10-02 08:53:00
4:53 AM,66.9,63.0,87,29.91,10.0,West,4.6,-,N/A,,Clear,260,2012-10-02 09:53:00
5:53 AM,68.0,63.0,84,29.91,10.0,West,4.6,-,N/A,,Clear,270,2012-10-02 10:53:00
6:53 AM,68.0,63.0,84,29.93,10.0,Calm,Calm,-,N/A,,Clear,0,2012-10-02 11:53:00
7:53 AM,66.9,63.0,87,29.94,10.0,WNW,3.5,-,N/A,,Clear,300,2012-10-02 12:53:00
8:53 AM,72.0,66.0,81,29.95,10.0,Calm,Calm,-,N/A,,Clear,0,2012-10-02 13:53:00
9:53 AM,79.0,64.9,62,29.97,10.0,WNW,5.8,-,N/A,,Clear,300,2012-10-02 14:53:00
10:53 AM,82.9,64.0,53,29.97,10.0,West,8.1,-,N/A,,Clear,270,2012-10-02 15:53:00
11:53 AM,87.1,60.1,40,29.96,10.0,Variable,5.8,-,N/A,,Clear,0,2012-10-02 16:53:00
12:53 PM,88.0,55.9,34,29.95,10.0,NNW,11.5,-,N/A,,Clear,340,2012-10-02 17:53:00
1:53 PM,90.0,57.0,33,29.92,10.0,North,9.2,-,N/A,,Clear,350,2012-10-02 18:53:00
2:53 PM,90.0,55.0,30,29.88,10.0,WNW,10.4,-,N/A,,Partly Cloudy,290,2012-10-02 19:53:00
3:53 PM,88.0,57.0,35,29.88,10.0,NNW,10.4,21.9,N/A,,Mostly Cloudy,340,2012-10-02 20:53:00
4:53 PM,86.0,61.0,43,29.88,10.0,NE,12.7,18.4,N/A,,Mostly Cloudy,40,2012-10-02 21:53:00
5:11 PM,84.2,62.6,48,29.88,10.0,ESE,11.5,-,N/A,,Partly Cloudy,120,2012-10-02 22:11:00
5:53 PM,84.0,61.0,46,29.89,10.0,ESE,8.1,-,N/A,,Clear,110,2012-10-02 22:53:00
6:53 PM,80.1,61.0,52,29.91,10.0,East,4.6,-,N/A,,Clear,90,2012-10-02 23:53:00
7:53 PM,77.0,64.9,66,29.93,10.0,ENE,5.8,-,N/A,,Clear,70,2012-10-03 00:53:00
8:53 PM,73.9,64.9,73,29.95,10.0,ENE,4.6,-,N/A,,Clear,70,2012-10-03 01:53:00
9:53 PM,73.0,64.9,76,29.98,10.0,East,3.5,-,N/A,,Clear,100,2012-10-03 02:53:00
10:53 PM,71.1,66.0,84,29.99,10.0,ENE,3.5,-,N/A,,Clear,60,2012-10-03 03:53:00
11:53 PM,70.0,64.9,84,29.99,10.0,Calm,Calm,-,N/A,,Clear,0,2012-10-03 04:53:00